Regional Weather Roundup
Issued by NWS

Home | Current Version | Previous Version | Graphics & Text | Print | Product List | Glossary On
Versions: 1 2 3 4 5 6 7 8 9 10 11 12 13 14 15 16 17 18 19 20 21 22 23 24 25 26 27 28 29 30 31 32 33 34 35 36 37 38 39 40 41 42 43 44 45 46 47 48 49 50
000
ASUS43 KTOP 310308
RWRKS

WEATHER ROUNDUP FOR KANSAS
NATIONAL WEATHER SERVICE GOODLAND KS
1000 PM CDT MON MAY 30 2016

NOTE:  "FAIR" INDICATES FEW OR NO CLOUDS BELOW 12,000 FEET WITH NO
SIGNIFICANT WEATHER AND/OR OBSTRUCTIONS TO VISIBILITY.

KSZ001>006-013>018-027>032-041>047-310400-
NORTHWEST KANSAS

CITY           SKY/WX    TMP DP  RH WIND       PRES   REMARKS
GOODLAND       CLOUDY    58  54  86 SE13      29.97F
HAYS           CLOUDY    70  55  60 SE8       29.89R
HILL CITY      CLOUDY    67  53  61 NW39G62   29.96R SQUALL
RUSSELL        CLOUDY    69  61  75 SE10      29.88R
$$

KSZ061>065-074>080-084>089-310400-
SOUTHWEST KANSAS

CITY           SKY/WX    TMP DP  RH WIND       PRES   REMARKS
DODGE CITY     CLOUDY    69  57  65 SE12      29.90R
ELKHART          N/A     70  59  68 SE12        N/A
GARDEN CITY    CLOUDY    71  55  56 SE9       29.88R
GREAT BEND     CLOUDY    72  57  60 SE12      29.89R
LIBERAL        CLOUDY    72  52  49 SE10      29.89R
PRATT          CLOUDY    68  57  68 SE9       29.89S
$$

KSZ066>073-081>083-090>101-310400-
SOUTHEAST KANSAS

CITY           SKY/WX    TMP DP  RH WIND       PRES   REMARKS
CHANUTE        CLEAR     66  62  87 E6        29.97R
COFFEYVILLE    CLOUDY    67  63  87 SE5       29.96S
HUTCHINSON     CLEAR     71  63  75 SE14      29.90S
MEDICINE LODGE   N/A     72  60  66 SE9       29.88F
NEWTON         CLEAR     66  57  72 S10       29.95S
PARSONS        MOCLDY    68  63  84 CALM      29.97S
WICHITA INTL   PTCLDY    70  62  76 SE14      29.92R
WICHITA JABRA  CLEAR     68  62  81 SE12      29.93R
WINFIELD       CLEAR     68  62  81 SE8       29.95R
$$

KSZ007>012-019>026-033>040-048>060-102>105-310400-
NORTHEAST KANSAS

CITY           SKY/WX    TMP DP  RH WIND       PRES   REMARKS
CONCORDIA      CLEAR     71  59  65 S13       29.90R
EMPORIA        CLEAR     67  61  81 SE9       29.95R
LAWRENCE       CLEAR     68  60  75 S8        29.96R
MANHATTAN      CLEAR     71  61  70 S6        29.91R
MARYSVILLE     CLEAR     72  61  68 S10       29.90S
OLATHE IND     CLEAR     66  61  84 SE8       29.98R
OLATHE EXE     CLEAR     64  59  83 S8        29.98S
SALINA         CLEAR     72  63  73 SE17      29.90R
TOPEKA BILLARD CLEAR     71  59  65 S9        29.94S
TOPEKA FORBES  CLEAR     70  60  70 SE9       29.95R
$$



USA.gov is the U.S. government's official web portal to all federal, state and local government web resources and services.